Wetbulb
75.99 76.16 76.49 76.83 77.15 77.56 77.07 77.61 78.05 78.39 79.07 79.56 79.74 79.59 79.52 79.43 79.83 79.29 79.05 78.86 78.55 78.70 79.89 78.71 78.88 79.40 78.30 78.49 77.96 77.88 77.05 76.82 72.76 75.47 76.93 78.25 78.06 76.13 76.27 76.71 76.99 76.52 76.38
76.24 76.88 76.76 77.26 77.45 77.38 77.22 77.79 79.01 78.41 78.94 77.78 77.58 76.85 75.59 75.98 76.13 75.68 75.30 75.52 75.07 75.10 75.44 76.08 76.30 75.58 78.45 79.40 77.73 78.73 76.72 76.87 74.28 73.04 76.89 76.41 78.12 76.59 76.06 76.67 75.86 76.05 75.68
76.16 76.21 76.67 77.64 77.64 77.36 76.67 75.60 74.38 74.10 74.41 73.84 72.14 72.36 72.72 72.32 71.72 71.69 71.49 71.05 71.12 71.15 71.31 72.32 72.74 74.44 75.45 74.55 76.01 76.12 76.01 75.63 74.51 73.31 74.32 76.65 76.18 75.54 75.54 75.67 75.39 75.60 75.08
76.52 75.80 73.94 74.02 72.81 69.99 69.33 69.33 69.79 69.74 70.37 70.46 70.32 70.31 70.52 70.56 70.54 70.71 70.50 70.09 70.10 70.13 70.92 71.02 71.55 71.77 73.51 74.40 74.63 75.70 75.79 76.05 74.44 72.47 72.52 75.33 75.94 76.92 74.83 73.25 72.20 71.68 68.81
72.96 71.98 70.48 70.23 69.51 69.31 68.44 67.69 67.92 68.19 67.99 67.34 67.94 68.12 68.18 68.20 67.77 67.02 66.76 66.26 66.71 67.01 68.17 68.94 69.57 69.68 68.54 68.60 69.60 72.22 74.90 74.89 74.22 71.95 70.87 70.76 72.04 72.66 72.46 73.21 71.25 68.97 64.79
68.89 67.48 67.63 66.73 65.93 65.11 66.10 65.19 66.40 66.09 66.15 66.57 66.24 66.24 66.71 66.97 63.08 63.16 63.65 64.28 64.59 64.05 64.59 67.38 68.68 68.20 68.23 66.42 66.42 66.90 68.81 70.45 72.50 72.05 70.90 69.01 69.76 72.92 73.95 71.50 68.21 64.61 63.14
63.63 64.28 64.00 64.15 63.91 64.40 64.49 64.91 64.76 64.05 64.74 64.52 65.03 64.05 64.93 66.51 59.96 58.90 60.10 62.86 64.43 65.08 65.38 66.21 66.80 67.72 68.21 69.79 67.84 65.97 66.40 66.50 68.23 72.81 70.55 70.21 69.78 72.94 72.97 70.85 68.16 66.95 67.65
61.86 61.54 62.42 61.76 60.23 61.53 62.76 62.65 62.16 62.72 63.42 62.96 61.79 61.86 62.36 62.69 58.07 57.33 57.82 63.70 64.01 65.76 66.08 67.30 68.18 68.61 69.62 68.70 68.14 68.96 69.75 70.82 71.63 72.04 70.87 71.29 71.42 72.83 73.10 71.29 69.61 68.81 66.71
60.45 61.16 61.17 62.65 62.53 62.24 61.33 61.32 62.79 63.48 62.60 61.77 61.31 61.62 62.84 61.18 57.03 56.14 57.63 61.98 62.26 62.53 63.73 66.71 68.32 66.05 61.89 58.87 59.28 64.31 68.20 69.80 67.09 63.86 64.46 64.90 64.74 65.33 69.32 70.76 67.02 64.32 62.36
60.35 61.11 61.06 62.17 62.07 61.64 62.40 62.58 63.34 63.72 62.17 62.21 61.66 61.68 58.96 61.05 56.16 54.84 55.98 59.37 59.66 59.56 62.03 64.76 62.63 61.64 56.78 56.03 57.86 62.55 65.43 68.10 68.43 66.88 67.89 68.08 67.06 67.71 63.87 71.96 68.70 64.99 64.93
62.34 62.76 63.04 62.95 62.38 62.67 62.32 62.97 63.09 62.63 62.31 62.05 62.36 62.60 62.74 60.99 61.24 54.34 54.00 60.15 59.46 59.12 59.77 60.68 62.24 57.25 54.95 53.66 53.83 60.50 64.57 67.60 65.95 67.20 67.67 67.70 68.59 68.38 68.10 69.08 68.84 68.07 66.53
63.63 62.81 62.60 62.37 61.54 61.68 62.41 62.14 61.93 62.60 62.00 61.49 61.30 61.21 61.58 62.82 56.80 56.13 54.01 54.40 57.68 60.49 59.82 59.54 60.02 54.81 52.98 53.53 57.01 55.98 56.18 60.87 66.43 65.79 65.61 66.30 66.08 65.30 65.42 65.24 66.10 67.70 68.98
63.19 62.62 62.08 62.10 61.74 62.15 61.80 61.19 60.49 61.37 60.01 59.80 59.27 59.00 59.69 60.89 61.21 55.75 55.00 55.30 56.95 60.23 59.99 58.33 56.56 54.73 54.83 58.11 56.18 56.12 59.20 63.34 64.73 63.94 64.78 64.49 63.48 64.87 64.44 63.92 65.42 66.70 65.40
62.64 62.26 62.01 61.38 61.10 61.32 60.78 60.27 59.65 59.32 58.82 58.85 58.56 58.38 58.88 59.56 59.32 59.58 60.09 60.85 58.71 59.93 59.09 59.20 58.30 57.61 56.60 57.70 59.18 58.73 58.07 57.55 57.25 56.44 57.33 59.66 61.89 61.23 61.11 62.17 61.52 62.98 61.97
62.10 61.78 61.19 60.66 60.70 60.29 60.46 60.00 59.42 59.06 56.80 58.10 57.81 58.58 57.89 57.59 56.82 49.58 49.59 57.59 59.05 56.97 57.25 57.42 55.86 56.66 57.35 57.12 57.13 57.73 57.63 57.28 55.98 55.84 56.04 56.28 56.70 57.27 57.29 60.13 62.13 62.83 61.41
61.08 60.66 60.19 59.89 59.89 60.01 59.69 58.20 52.07 51.49 49.97 47.59 46.45 50.14 57.27 51.79 45.75 44.61 44.49 45.44 47.21 48.85 58.31 55.54 54.56 54.77 54.57 56.70 57.15 56.12 56.28 56.56 57.77 57.60 55.76 56.06 55.32 57.01 57.47 57.36 59.07 58.35 57.76
60.89 60.30 59.75 59.08 59.58 59.55 59.95 59.96 58.65 54.24 49.91 48.40 47.03 46.25 45.29 45.53 44.20 43.26 43.73 45.23 48.25 53.38 58.27 57.30 56.16 55.05 54.60 54.48 55.28 55.58 55.26 56.30 57.03 55.98 55.96 56.20 56.59 54.82 54.68 55.02 56.45 57.25 55.93
61.36 54.79 60.17 60.14 60.06 60.01 60.60 60.81 61.83 60.99 60.25 60.83 50.09 50.58 48.97 45.71 44.49 44.05 44.25 49.02 59.53 58.51 58.93 58.56 58.69 59.24 56.25 54.81 55.33 56.02 55.92 55.50 55.18 55.04 55.79 56.00 55.31 54.34 53.52 52.70 54.86 56.12 56.05
61.01 59.79 60.64 60.69 60.81 59.78 60.98 61.66 61.73 61.96 60.95 60.74 61.34 55.09 53.59 46.64 47.33 47.28 47.67 61.21 60.14 59.33 59.36 57.67 59.47 59.28 60.49 59.97 60.21 59.87 58.31 57.32 56.10 56.00 55.80 55.26 55.58 55.21 54.42 54.50 53.71 52.55 53.60
61.78 58.93 59.34 60.97 60.63 60.27 61.01 60.88 60.90 60.57 60.33 60.36 60.29 60.84 61.92 59.62 60.10 60.14 61.24 61.38 61.30 61.56 60.69 61.13 61.87 60.94 61.06 60.75 60.58 60.56 60.59 59.84 58.50 57.03 56.80 57.00 57.49 57.67 56.22 54.55 55.32 53.27 54.68
62.02 61.42 59.47 61.06 61.30 61.19 61.22 60.87 61.32 60.85 60.57 60.44 60.49 60.84 48.00 59.37 60.37 60.66 60.09 61.16 61.21 61.14 62.10 63.26 62.08 61.42 61.62 61.73 61.56 60.25 59.57 58.97 59.13 58.92 58.26 58.78 59.47 56.73 56.67 57.74 57.36 57.30 56.61
63.12 62.42 61.86 61.01 61.76 61.54 61.66 61.68 60.96 60.65 60.48 60.34 60.90 60.05 50.48 60.27 60.23 60.28 62.23 61.95 62.47 64.22 63.31 63.55 61.90 62.15 62.36 62.08 62.41 61.46 60.54 59.72 60.12 59.31 58.81 59.11 58.69 58.40 57.89 57.35 57.35 57.06 56.83
63.92 63.26 62.68 62.42 61.93 58.72 61.53 61.02 60.81 60.71 60.39 60.31 60.73 60.25 60.09 60.59 61.04 61.11 62.26 63.62 63.74 63.35 63.84 63.47 63.48 64.05 63.48 63.21 63.90 64.29 61.85 61.72 63.22 61.96 60.54 60.78 59.78 59.20 58.43 58.30 57.92 58.08 57.15
64.68 64.06 62.85 62.08 62.35 61.87 60.12 59.60 61.65 56.00 60.01 60.30 60.41 59.90 60.31 62.05 60.87 60.79 62.23 62.93 63.66 63.84 64.23 63.53 63.63 62.82 64.11 63.59 64.05 63.72 63.68 62.57 63.90 60.89 60.66 60.92 60.13 58.05 58.73 58.45 57.25 57.64 58.81
64.39 64.19 63.57 63.24 62.44 62.04 58.99 60.01 61.64 61.13 60.64 60.37 59.90 60.53 60.33 61.25 61.25 61.72 62.71 63.32 62.99 63.10 62.96 63.35 63.88 63.33 62.93 62.29 62.32 62.46 51.90 42.44 57.09 48.50 62.20 60.99 60.02 59.44 58.88 57.79 57.40 56.56 56.02
63.84 63.69 63.72 63.95 63.62 63.36 62.32 60.48 60.27 60.90 59.93 59.93 59.86 60.56 61.37 61.22 61.40 62.80 62.60 63.11 62.62 62.52 62.79 63.59 63.63 62.91 62.75 63.50 62.55 48.56 39.36 37.91 51.27 41.89 60.28 61.90 61.66 59.80 60.02 57.45 56.03 55.48 53.86
MSLP
1005.21 1005.87 1006.85 1007.37 1007.80 1008.37 1008.63 1008.74 1009.14 1009.23 1009.45 1009.80 1009.98 1009.84 1010.09 1010.18 1010.16 1010.11 1010.03 1009.75 1009.45 1009.03 1008.86 1008.89 1008.26 1008.39 1007.97 1007.56 1006.60 1006.55 1007.11 1007.33 1007.12 1006.23 1005.35 1004.73 1005.48 1006.33 1006.64 1006.39 1006.70 1006.80 1006.43
1004.81 1005.49 1006.55 1007.03 1007.31 1007.81 1008.39 1008.41 1008.82 1008.94 1009.45 1010.09 1010.45 1010.52 1010.59 1010.66 1010.53 1010.31 1010.11 1009.73 1009.33 1008.84 1008.41 1008.26 1007.78 1007.42 1007.20 1006.89 1006.42 1006.14 1006.55 1006.70 1006.71 1006.06 1005.43 1004.58 1005.20 1005.76 1006.26 1006.21 1005.95 1005.73 1005.90
1005.22 1005.81 1006.60 1007.48 1007.98 1008.39 1009.33 1009.54 1009.36 1009.81 1009.94 1010.30 1010.81 1010.47 1010.51 1010.60 1010.47 1010.43 1010.25 1009.85 1009.55 1009.11 1008.65 1008.20 1007.67 1007.32 1006.82 1006.40 1006.16 1005.78 1005.85 1006.05 1006.05 1005.85 1004.98 1004.40 1004.33 1004.69 1005.27 1005.89 1005.96 1005.84 1006.02
1005.60 1007.38 1008.03 1008.70 1009.41 1009.56 1010.28 1010.66 1010.15 1010.15 1010.58 1010.53 1010.79 1010.53 1010.58 1010.58 1010.56 1010.35 1010.08 1009.82 1009.42 1008.92 1008.54 1008.15 1007.56 1006.99 1006.53 1006.11 1005.60 1005.41 1005.28 1005.09 1005.12 1005.17 1004.78 1004.57 1004.30 1004.22 1004.67 1005.07 1005.39 1006.19 1006.64
1007.66 1008.40 1009.38 1009.35 1009.81 1009.61 1010.18 1010.24 1009.93 1010.84 1010.82 1010.78 1010.81 1010.72 1010.90 1010.71 1010.43 1010.97 1010.63 1010.35 1009.87 1009.35 1008.66 1007.97 1007.23 1006.65 1006.45 1006.40 1006.00 1005.16 1004.56 1004.05 1004.48 1004.45 1004.25 1004.39 1004.07 1003.96 1004.14 1004.29 1004.81 1006.00 1006.95
1008.04 1010.24 1010.35 1010.64 1011.14 1010.09 1010.65 1010.51 1010.29 1011.05 1011.22 1010.73 1010.82 1010.92 1011.15 1010.88 1011.43 1011.41 1011.15 1010.53 1009.83 1009.09 1008.34 1007.59 1006.92 1006.40 1005.62 1005.17 1004.99 1004.89 1004.79 1004.53 1003.81 1003.86 1003.59 1003.63 1003.53 1003.38 1003.37 1003.69 1005.03 1005.93 1006.84
1010.87 1010.58 1010.72 1010.59 1012.24 1010.69 1010.69 1011.03 1011.09 1011.23 1011.08 1010.86 1011.13 1011.43 1011.62 1011.39 1011.81 1011.72 1011.21 1010.28 1009.18 1008.28 1007.71 1007.19 1006.54 1005.81 1005.41 1004.57 1003.97 1003.65 1003.39 1003.28 1003.25 1003.15 1002.90 1002.65 1002.97 1002.76 1002.88 1003.49 1004.19 1004.73 1004.99
1009.76 1010.23 1011.92 1010.71 1011.90 1012.16 1011.85 1011.67 1011.81 1011.26 1011.00 1011.42 1011.73 1012.13 1012.08 1011.81 1012.09 1011.62 1010.97 1009.52 1008.76 1008.03 1007.43 1006.77 1006.01 1005.39 1004.81 1004.46 1004.02 1003.18 1002.55 1002.22 1001.89 1002.03 1002.07 1002.08 1002.27 1002.25 1002.50 1003.18 1003.74 1004.71 1005.04
1009.12 1009.99 1011.15 1010.83 1011.67 1012.38 1012.48 1012.05 1011.48 1011.35 1011.50 1011.68 1012.09 1012.17 1012.01 1011.94 1011.79 1011.39 1010.71 1009.42 1008.67 1008.16 1007.45 1006.63 1005.73 1005.51 1005.26 1005.17 1004.44 1003.23 1002.23 1001.63 1001.48 1001.63 1001.70 1001.65 1001.88 1001.89 1002.38 1002.63 1003.51 1004.40 1004.90
1010.65 1011.00 1010.93 1011.64 1012.25 1012.69 1012.35 1011.89 1011.71 1011.56 1011.86 1011.93 1012.11 1012.21 1012.18 1011.71 1011.58 1011.31 1010.88 1009.79 1009.01 1008.36 1007.39 1006.25 1005.78 1005.71 1005.55 1004.88 1004.23 1003.03 1001.81 1001.21 1001.38 1001.58 1001.57 1001.58 1001.80 1002.10 1002.53 1002.58 1003.05 1003.66 1004.01
1010.56 1011.38 1011.69 1011.80 1012.46 1012.63 1012.19 1011.86 1011.85 1011.94 1012.02 1011.90 1011.77 1011.69 1011.49 1011.53 1011.34 1011.33 1010.98 1009.79 1009.09 1008.17 1007.23 1006.33 1005.67 1005.64 1005.04 1004.33 1003.52 1002.55 1001.77 1001.08 1001.23 1001.34 1001.55 1001.63 1001.90 1002.35 1002.92 1003.21 1003.15 1003.30 1003.28
1010.97 1011.11 1011.46 1011.93 1011.87 1012.16 1012.03 1012.16 1012.34 1011.91 1011.91 1011.82 1011.68 1011.02 1010.89 1010.93 1011.09 1011.05 1010.64 1009.86 1009.29 1008.03 1007.26 1006.95 1006.34 1005.93 1005.04 1004.10 1002.96 1002.09 1001.61 1001.30 1001.17 1001.38 1001.57 1001.71 1002.05 1002.71 1003.17 1003.46 1003.39 1003.36 1003.33
1010.79 1011.26 1011.78 1012.03 1012.21 1012.23 1012.21 1012.13 1011.89 1012.10 1011.87 1011.61 1011.31 1011.18 1010.89 1010.63 1010.79 1010.66 1010.08 1009.39 1008.93 1007.93 1007.82 1007.31 1006.60 1005.95 1005.07 1004.17 1003.57 1002.56 1001.89 1001.53 1001.46 1001.61 1001.72 1002.01 1002.50 1003.04 1003.55 1003.94 1003.65 1003.87 1004.07
1011.11 1011.51 1011.78 1011.97 1012.09 1012.05 1011.80 1011.85 1012.00 1012.05 1012.11 1011.83 1011.72 1011.35 1011.19 1011.09 1011.23 1011.09 1010.55 1009.39 1008.64 1008.07 1007.95 1007.39 1006.95 1006.30 1005.68 1004.94 1004.21 1003.76 1003.47 1003.19 1003.04 1003.15 1003.14 1003.19 1003.50 1003.75 1004.03 1004.10 1003.62 1003.84 1003.98
1010.89 1011.23 1011.46 1011.53 1011.66 1011.99 1011.98 1012.09 1012.26 1012.91 1012.98 1012.67 1012.72 1012.14 1011.97 1011.69 1012.28 1012.60 1012.10 1010.83 1009.90 1009.19 1008.49 1007.94 1007.33 1006.87 1006.36 1005.73 1005.38 1004.96 1004.88 1004.69 1004.37 1004.29 1004.53 1004.23 1004.66 1004.99 1004.81 1004.32 1003.28 1003.05 1003.42
1010.48 1010.60 1010.68 1011.04 1011.28 1011.46 1011.70 1012.48 1013.11 1013.38 1013.66 1013.75 1013.68 1013.58 1012.79 1012.71 1012.55 1012.08 1011.63 1011.24 1010.59 1009.61 1008.69 1008.72 1008.32 1007.93 1007.68 1007.07 1006.81 1006.47 1006.19 1006.00 1005.85 1005.86 1005.84 1005.76 1005.77 1005.71 1006.97 1005.40 1005.49 1004.18 1004.16
1009.87 1010.42 1010.67 1010.77 1011.03 1011.35 1011.43 1011.45 1011.74 1013.06 1013.07 1013.13 1013.15 1013.16 1013.10 1012.75 1012.57 1012.05 1011.60 1011.19 1010.73 1009.76 1009.13 1009.13 1008.87 1008.65 1008.62 1008.23 1007.96 1007.40 1007.29 1007.26 1007.16 1007.17 1007.01 1006.92 1006.84 1006.98 1007.23 1006.97 1006.57 1006.11 1005.62
1009.97 1010.35 1010.39 1010.56 1010.80 1011.09 1011.25 1011.40 1011.48 1011.61 1011.65 1011.80 1012.42 1012.37 1012.38 1012.37 1012.05 1011.85 1011.31 1010.49 1009.65 1009.55 1009.43 1009.08 1008.71 1008.62 1008.75 1008.56 1008.54 1008.35 1008.26 1008.24 1008.15 1008.06 1008.09 1007.97 1008.01 1008.17 1008.59 1008.59 1008.51 1007.84 1007.34
1009.84 1010.02 1010.04 1010.32 1010.49 1010.75 1010.95 1011.11 1011.14 1011.25 1011.25 1011.20 1010.94 1011.29 1011.48 1011.45 1011.06 1010.94 1010.61 1009.91 1009.73 1009.09 1009.19 1009.40 1009.07 1008.67 1008.17 1007.86 1007.90 1008.26 1008.40 1008.39 1008.72 1008.75 1008.78 1008.73 1008.67 1008.65 1008.87 1009.24 1009.45 1009.23 1008.99
1009.43 1009.63 1009.88 1009.99 1010.24 1010.50 1010.49 1010.52 1010.50 1010.66 1010.65 1010.46 1010.41 1010.26 1010.16 1010.21 1009.73 1009.69 1009.33 1008.87 1008.63 1008.93 1008.73 1008.37 1008.47 1008.25 1007.85 1007.67 1007.31 1006.83 1007.44 1008.02 1008.15 1008.50 1008.99 1008.99 1008.94 1008.71 1008.90 1009.13 1009.24 1009.13 1008.65
1008.69 1009.25 1009.84 1009.81 1009.69 1009.82 1009.90 1010.07 1010.14 1010.15 1010.01 1009.91 1009.96 1010.10 1010.93 1010.77 1009.57 1008.91 1008.76 1008.51 1008.33 1008.16 1007.99 1008.28 1007.69 1007.73 1007.60 1007.62 1007.55 1007.07 1006.73 1006.83 1006.71 1007.01 1007.85 1008.03 1008.39 1008.24 1008.29 1008.13 1008.15 1007.99 1008.15
1007.96 1008.32 1008.97 1009.31 1009.28 1009.45 1009.63 1009.69 1009.80 1009.74 1009.67 1009.43 1009.38 1009.47 1010.21 1009.73 1008.74 1008.49 1008.26 1008.01 1008.04 1008.13 1007.95 1008.01 1007.89 1007.55 1007.39 1007.95 1008.03 1007.54 1007.31 1007.56 1007.49 1007.36 1007.31 1007.21 1007.08 1007.23 1007.63 1007.82 1007.80 1007.87 1007.91
1007.35 1007.71 1008.00 1008.34 1008.75 1009.23 1009.44 1009.61 1009.28 1009.16 1009.06 1008.97 1008.93 1008.79 1008.79 1008.37 1008.16 1008.00 1007.88 1007.69 1007.83 1007.78 1007.76 1007.78 1007.66 1007.81 1007.65 1007.37 1007.33 1007.73 1007.57 1007.41 1007.40 1007.35 1007.35 1007.43 1007.16 1007.37 1007.17 1007.28 1007.61 1008.01 1008.29
1006.83 1007.06 1007.39 1007.76 1008.11 1008.95 1009.51 1009.61 1009.42 1009.18 1008.88 1008.32 1008.08 1008.20 1008.06 1007.73 1007.69 1007.72 1007.70 1007.43 1007.50 1007.57 1007.67 1007.66 1007.48 1007.54 1007.49 1007.45 1007.30 1007.25 1007.20 1007.51 1007.43 1007.77 1007.90 1007.56 1007.52 1007.70 1007.31 1007.28 1007.43 1007.98 1007.97
1006.24 1006.48 1007.20 1007.60 1007.88 1008.49 1009.11 1009.06 1008.59 1007.90 1007.72 1007.69 1007.55 1007.43 1007.53 1007.45 1007.37 1007.61 1007.09 1007.19 1007.24 1007.29 1007.33 1007.35 1007.30 1007.32 1007.42 1007.58 1007.56 1007.58 1008.37 1008.55 1008.35 1008.24 1007.29 1007.51 1007.65 1007.74 1007.53 1007.58 1007.79 1007.90 1008.09
1005.60 1006.07 1006.77 1007.22 1007.54 1007.95 1008.48 1008.56 1008.41 1007.35 1007.27 1007.25 1007.36 1007.25 1007.15 1006.80 1007.03 1006.97 1006.84 1006.73 1006.83 1006.83 1007.01 1006.95 1007.02 1007.30 1007.33 1007.16 1007.47 1008.35 1008.55 1008.63 1008.43 1008.49 1008.00 1007.47 1007.57 1007.49 1007.57 1007.76 1007.84 1008.11 1008.15
Wind_Speed
13 12 11 10 10 10 10 9 9 9 7 8 9 9 9 10 9 8 10 11 13 13 13 14 16 14 12 13 13 12 10 11 11 15 14 11 10 11 11 10 9 11 9
13 11 10 10 9 9 8 7 2 4 1 4 6 6 6 9 10 11 13 14 14 15 16 15 16 13 14 13 14 13 10 11 10 15 15 13 7 10 13 11 8 8 7
11 12 11 7 6 8 5 5 6 3 2 2 4 6 7 8 9 10 12 13 14 15 16 15 16 15 15 14 14 14 11 10 10 12 15 13 10 8 10 9 7 8 3
13 10 10 9 8 9 6 4 5 5 2 3 5 6 7 8 9 10 10 12 14 14 15 16 17 17 16 16 15 15 14 13 12 10 11 11 11 8 8 9 9 3 3
12 11 9 10 9 9 6 6 7 4 4 4 6 7 8 8 6 11 11 13 14 15 16 16 17 17 17 16 14 16 16 13 10 10 10 9 9 9 11 10 8 4 2
16 8 9 8 6 9 6 8 7 4 4 5 5 7 8 7 9 11 12 11 13 15 15 15 16 19 20 22 24 25 21 18 17 11 10 11 12 13 11 8 7 5 3
7 10 8 10 3 8 7 5 5 4 6 7 7 8 9 9 15 15 16 12 13 14 13 13 14 13 17 18 17 16 21 23 23 16 14 13 11 14 12 10 10 9 5
12 11 5 10 7 4 5 5 5 6 8 7 6 5 6 5 13 15 18 12 12 14 14 15 14 15 15 14 16 18 17 18 16 10 14 13 10 10 12 11 10 7 6
11 11 7 8 7 4 5 5 6 6 6 5 5 5 8 9 11 15 16 11 12 14 13 15 12 12 12 22 13 13 16 14 6 7 5 8 10 8 9 9 9 7 4
9 9 8 8 6 4 5 6 5 6 6 5 6 7 6 9 9 13 14 8 11 11 12 13 10 9 19 20 13 11 11 9 7 5 3 2 3 7 7 7 11 8 6
11 9 9 8 6 5 6 6 5 7 6 6 6 4 7 9 12 12 17 12 10 11 10 11 12 19 22 21 15 9 9 5 6 5 5 6 6 6 4 3 8 5 8
10 10 9 7 5 6 7 7 6 5 6 6 6 6 7 8 5 10 15 13 12 10 10 10 12 19 18 15 15 10 10 7 5 4 4 5 5 5 3 1 4 4 5
10 10 9 8 7 6 6 6 5 5 5 6 7 8 7 9 10 8 12 14 11 10 10 12 15 15 13 9 15 13 10 4 1 3 4 4 5 6 7 5 8 8 11
11 11 9 8 7 5 5 5 5 5 6 7 7 8 8 9 11 12 12 12 11 13 13 10 12 11 11 10 9 9 8 8 8 8 7 7 5 3 1 4 7 8 9
11 10 9 7 7 7 6 5 7 7 6 6 6 7 8 9 10 9 8 11 11 10 10 9 10 11 9 10 10 10 7 7 8 9 10 10 9 7 8 6 2 10 10
11 8 7 7 6 5 6 8 3 3 4 6 7 5 6 1 9 12 12 13 14 13 8 8 8 10 11 10 9 8 8 10 8 9 8 7 10 9 7 6 6 7 10
8 9 6 5 5 5 4 3 5 7 8 9 10 10 10 11 12 11 12 11 7 9 8 8 8 8 8 7 7 8 7 7 8 7 8 8 10 11 9 10 7 3 10
9 4 7 6 5 5 4 3 0 1 2 2 11 9 6 9 10 10 13 13 7 7 6 6 8 5 3 2 4 5 7 7 7 6 7 8 9 9 8 8 8 9 8
9 8 6 5 5 3 3 2 2 1 2 3 3 8 9 12 13 12 11 6 6 6 5 3 5 5 7 6 6 5 5 8 6 4 4 4 4 4 6 5 4 4 5
8 5 4 5 6 6 4 3 3 3 4 3 4 3 4 4 4 3 4 5 4 3 6 2 2 5 6 6 6 5 8 9 7 5 4 2 2 3 7 6 5 6 8
8 9 8 7 6 5 4 4 3 3 4 3 3 0 4 6 7 4 4 4 5 5 3 1 3 4 1 4 4 4 5 6 5 9 9 6 7 7 8 9 10 10 10
8 8 10 9 7 6 6 5 5 5 5 5 4 4 10 7 4 3 3 3 3 1 3 3 5 6 5 4 3 4 3 3 3 5 5 4 4 5 4 3 3 2 1
9 9 9 9 8 4 5 6 7 7 7 5 5 4 5 5 3 3 3 2 3 3 3 4 3 1 3 4 2 1 2 3 1 2 3 1 2 3 2 3 3 2 0
10 11 11 10 9 8 6 3 7 8 9 6 5 4 4 4 3 3 4 4 3 3 3 3 3 4 2 2 2 2 3 4 1 4 4 2 3 3 5 3 2 4 2
11 10 11 11 10 10 7 9 11 9 7 7 6 4 4 3 2 6 4 3 4 3 3 3 3 1 3 1 3 3 7 5 6 8 5 4 3 4 4 3 3 4 3
8 8 9 9 10 9 8 7 10 8 7 5 6 4 6 5 5 4 5 4 4 4 4 3 2 4 3 4 3 8 6 4 3 2 6 4 2 4 2 2 2 5 6
Wind_Direction
196 190 197 195 198 204 221 220 235 250 260 267 272 275 287 294 294 292 285 281 275 277 272 269 268 264 263 263 258 243 247 242 244 261 272 269 192 223 253 226 223 234 243
175 171 188 185 188 192 211 211 233 239 307 315 305 307 305 300 296 294 290 294 290 286 286 285 280 280 275 264 262 262 243 246 243 253 267 274 238 216 241 236 239 249 275
156 163 164 152 126 118 114 115 113 96 67 357 293 304 306 303 302 298 294 293 290 289 287 285 282 280 274 273 274 269 249 241 243 251 258 270 264 216 221 224 232 233 257
112 104 113 113 107 102 90 76 74 65 338 345 323 322 313 312 308 298 308 306 300 293 292 290 288 283 280 280 267 258 263 257 246 244 253 256 261 232 225 234 200 195 176
109 115 115 128 121 101 108 106 70 30 23 14 353 348 335 323 323 338 324 313 306 298 295 290 281 280 291 288 285 282 286 264 245 246 243 253 248 233 216 219 237 167 125
103 98 97 69 64 85 76 59 81 34 13 24 12 354 333 322 22 333 315 306 295 288 284 282 287 285 268 250 247 253 258 267 269 257 247 236 235 236 237 196 183 167 198
89 99 86 69 48 61 68 65 55 44 30 28 16 4 326 328 24 349 329 301 296 296 289 283 282 282 295 290 282 259 250 242 243 255 250 235 235 237 223 196 192 197 179
102 97 105 85 67 53 64 75 52 44 36 26 11 343 341 16 11 342 332 309 309 306 306 299 300 298 291 301 299 289 285 283 263 249 242 241 228 238 205 205 182 163 110
102 89 101 89 80 75 68 67 51 52 50 46 33 15 11 7 11 347 343 334 329 318 315 304 316 318 342 329 314 287 274 267 251 250 254 250 236 199 195 171 153 160 135
96 110 99 100 107 113 96 73 65 71 64 57 48 30 16 8 32 354 355 339 325 322 316 321 318 347 330 313 303 286 280 245 219 185 206 198 176 164 171 176 161 167 143
116 129 131 114 123 114 93 75 86 79 72 51 44 54 36 24 9 8 343 341 343 326 328 330 331 348 325 316 302 276 277 241 184 173 186 173 179 150 169 213 181 211 172
133 117 116 130 111 99 94 88 69 69 58 61 30 22 20 13 10 9 324 310 322 335 341 335 332 328 321 324 319 317 277 237 172 173 164 172 149 145 143 98 105 82 68
129 125 122 114 108 103 93 87 95 85 58 43 40 33 12 19 12 4 322 319 359 345 360 335 322 327 333 339 356 12 20 8 108 148 150 125 130 128 117 127 110 113 105
138 138 137 126 114 98 97 91 78 69 68 56 45 38 18 22 17 360 351 352 358 10 6 1 354 351 359 360 2 30 43 56 61 56 49 45 43 79 43 184 144 149 125
142 139 144 133 119 113 73 69 101 63 34 42 38 17 12 19 9 327 328 348 352 359 355 8 13 7 10 17 24 36 42 46 59 65 52 59 53 34 38 314 193 139 124
149 151 140 138 139 115 132 122 73 76 198 232 259 287 345 23 341 329 333 328 333 324 30 23 16 19 18 19 28 35 34 39 42 67 72 71 70 45 22 43 349 72 103
152 141 141 154 136 144 136 136 146 188 223 219 227 231 232 277 302 317 315 312 308 349 31 33 36 32 16 17 19 36 40 51 54 51 58 59 65 68 36 32 12 328 88
161 115 169 154 152 156 144 128 115 18 348 126 216 237 227 261 284 291 290 297 36 38 32 8 32 64 108 58 20 28 53 56 52 56 65 73 76 69 60 53 22 12 18
169 175 182 163 162 131 166 187 235 259 300 313 307 203 197 234 246 249 256 318 11 16 64 349 352 8 27 31 70 126 141 105 97 41 39 36 57 104 120 104 94 46 356
189 111 211 186 164 207 196 230 236 242 256 270 291 326 336 299 326 333 352 6 4 69 351 18 64 9 27 30 19 100 136 153 149 134 128 157 194 188 135 164 198 180 176
193 175 216 227 213 209 220 226 253 279 288 297 282 360 80 299 300 358 356 5 7 1 33 55 327 16 58 40 28 16 52 65 56 134 158 175 172 207 205 191 197 197 200
204 200 187 220 219 213 225 227 238 251 269 280 264 186 174 255 283 346 354 342 6 333 338 336 358 352 53 31 343 14 45 66 62 26 53 20 75 96 104 55 14 17 111
214 215 213 211 219 224 206 254 240 235 244 254 260 270 224 260 295 310 311 301 325 310 328 298 0 305 359 355 116 191 41 36 67 47 34 157 56 9 335 65 61 158 208
225 233 222 229 209 202 207 243 268 248 290 276 252 249 266 286 281 281 277 308 286 295 280 290 331 338 18 307 62 207 136 38 310 123 211 153 193 209 357 15 33 34 302
242 229 229 226 229 206 192 219 250 241 225 228 253 276 296 283 94 291 265 266 278 273 268 275 274 288 218 214 325 351 80 34 331 352 285 9 14 334 330 331 4 331 319
234 242 231 230 221 203 204 200 243 241 232 230 242 247 262 267 290 280 283 274 258 231 269 262 256 256 268 236 78 100 132 165 228 295 298 269 251 263 304 294 311 316 319